This demonstration page uses our WeatherBlox Daily Observations layout. Learn more.

Left ArrowRight Arrow

39.51506, -84.39828

Hourly Observations for November 29, 2020

Temp ( °F °C ) Dew Point ( °F °C ) Humidity (%) Winds ( mph kmh ) Pressure ( in mb ) Visibility ( mi km ) Precip ( " mm )
12:15 am 00:15 Clear with Mist and Fog 28 -2.5 27 -2.7 99 99 Calm 30.21 1023 5 8.0467 0 0
12:35 am 00:35 Clear 28 -2 N/A N/A Calm 30.2 1023 7 11.26538 0 0
12:55 am 00:55 Clear 29 -1.8 29 -1.8 100 100 Calm 30.2 1023 7 11.26538 0 0
1:15 am 01:15 Clear with Mist and Fog 28 -2 27 -3 93 93 Calm 30.2 1023 5 8.0467 0 0
1:35 am 01:35 Hazy 28 -2 N/A N/A Calm 30.19 1022 5 8.0467 0 0
1:55 am 01:55 Clear 28 -2 N/A N/A Calm 30.19 1022 7 11.26538 0 0
2:15 am 02:15 Hazy 28 -2 N/A N/A Calm 30.19 1022 7 11.26538 0 0
2:35 am 02:35 Hazy 28 -2 N/A N/A Calm 30.2 1023 7 11.26538 0 0
2:55 am 02:55 Clear with Mist and Fog 27 -2.7 27 -2.8 99 99 Calm 30.19 1022 7 11.26538 0 0
3:15 am 03:15 Clear 28 -2.4 28 -2.4 100 100 Calm 30.19 1022 7 11.26538 0 0
3:35 am 03:35 Clear 28 -2.3 28 -2.4 99 99 Calm 30.2 1023 7 11.26538 0 0
3:55 am 03:55 Clear with Mist and Fog 27 -2.7 27 -2.8 99 99 Calm 30.2 1023 5 8.0467 0 0
4:15 am 04:15 Clear with Mist and Fog 27 -2.8 27 -2.9 99 99 Calm 30.2 1023 5 8.0467 0 0
4:35 am 04:35 Clear with Mist and Fog 27 -3 27 -3 100 100 Calm 30.21 1023 2 3.21868 0 0
4:55 am 04:55 Mostly Cloudy with Freezing Fog 27 -3 N/A N/A Calm 30.2 1023 0.25 0.402335 0 0
5:15 am 05:15 Mostly Cloudy with Freezing Fog 27 -3 N/A N/A Calm 30.2 1023 0.5 0.80467 0 0
5:35 am 05:35 Clear with Mist and Fog 27 -3 N/A N/A N 3 6 30.19 1022 2.5 4.02335 0 0
5:55 am 05:55 Clear with Mist and Fog 27 -3 25 -4 93 93 Calm 30.19 1022 7 11.26538 0 0
6:15 am 06:15 Mostly Cloudy with Freezing Fog 27 -3 N/A N/A Calm 30.19 1022 0.25 0.402335 0 0
6:35 am 06:35 Clear with Mist and Fog 27 -3 N/A N/A Calm 30.19 1022 3 4.82802 0 0
6:55 am 06:55 Clear with Mist and Fog 27 -3 25 -4 93 93 Calm 30.2 1023 5 8.0467 0 0
7:15 am 07:15 Clear with Mist and Fog 25 -4 25 -4 100 100 Calm 30.21 1023 4 6.43736 0 0
7:35 am 07:35 Mostly Cloudy with Freezing Fog 27 -3 N/A N/A Calm 30.2 1023 N/A 0 0
7:55 am 07:55 Sunny with Mist and Fog 25 -3.8 25 -3.9 99 99 Calm 30.21 1023 4 6.43736 0 0
8:15 am 08:15 Mostly Cloudy with Mist and Fog 27 -3 25 -4 93 93 Calm 30.19 1022 1 1.60934 0 0
8:35 am 08:35 Sunny with Mist and Fog 27 -3 27 -3 100 100 Calm 30.19 1022 5 8.0467 0 0
8:55 am 08:55 Mostly Cloudy with Freezing Fog 28 -2 N/A N/A Calm 30.19 1022 0.5 0.80467 0 0
9:15 am 09:15 Mostly Cloudy with Mist and Fog 30 -1 N/A N/A Calm 30.19 1022 0.75 1.207005 0 0
9:35 am 09:35 Hazy 32 0 N/A N/A Calm 30.18 1022 5 8.0467 0 0
9:55 am 09:55 Sunny with Mist and Fog 34 0.9 33 0.5 97 97 Calm 30.16 1021 5 8.0467 0 0
10:15 am 10:15 Sunny with Mist and Fog 35 1.9 33 0.8 93 93 Calm 30.15 1021 5 8.0467 0 0
10:35 am 10:35 Sunny with Mist and Fog 37 2.9 34 1.2 89 89 Calm 30.14 1021 5 8.0467 0 0
10:55 am 10:55 Hazy 40 4.2 35 1.4 82 82 Calm 30.13 1020 7 11.26538 0 0
11:15 am 11:15 Hazy 42 5.6 35 1.6 76 76 Calm 30.11 1020 7 11.26538 0 0
11:35 am 11:35 Sunny 44 6.8 35 1.9 71 71 Calm 30.09 1019 7 11.26538 0 0
11:55 am 11:55 Sunny 47 8.2 35 1.9 65 65 Calm 30.07 1018 10 16.0934 0 0
12:15 pm 12:15 Sunny 49 9.2 34 1.3 58 58 Calm 30.06 1018 10 16.0934 0 0
12:35 pm 12:35 Sunny 49 9.7 35 1.9 59 59 Calm 30.05 1018 10 16.0934 0 0
12:55 pm 12:55 Sunny 52 10.9 35 1.8 54 54 WSW 6 9 30.04 1017 10 16.0934 0 0
1:15 pm 13:15 Sunny 52 10.9 33 0.7 50 50 W 3 6 30.03 1017 10 16.0934 0 0
1:35 pm 13:35 Sunny 53 11.4 27 -2.6 38 38 Calm 30.03 1017 10 16.0934 0 0
1:55 pm 13:55 Sunny 53 11.6 28 -2.5 38 38 Calm 30 1016 10 16.0934 0 0
2:15 pm 14:15 Sunny 54 12.1 26 -3.2 35 35 Calm 30 1016 10 16.0934 0 0
2:35 pm 14:35 Sunny 53 11.9 27 -3 36 36 WSW 5 7 29.99 1016 10 16.0934 0 0
2:55 pm 14:55 Sunny 54 12 28 -2.1 38 38 WSW 5 7 29.98 1015 10 16.0934 0 0
3:15 pm 15:15 Sunny 53 11.5 29 -1.6 40 40 Calm 29.97 1015 10 16.0934 0 0
3:35 pm 15:35 Sunny 53 11.6 27 -2.8 37 37 Calm 29.95 1014 10 16.0934 0 0
3:55 pm 15:55 Sunny 53 11.5 27 -2.6 38 38 S 3 6 29.96 1014 10 16.0934 0 0
4:15 pm 16:15 Sunny 52 11 29 -1.4 42 42 Calm 29.96 1014 10 16.0934 0 0
4:35 pm 16:35 Sunny 52 11.1 29 -1.6 42 42 Calm 29.95 1014 10 16.0934 0 0
4:55 pm 16:55 Sunny 50 10 32 -0.2 49 49 Calm 29.95 1014 10 16.0934 0 0
5:15 pm 17:15 Clear 48 9.1 32 0.1 54 54 Calm 29.94 1014 10 16.0934 0 0
5:35 pm 17:35 Clear 48 8.7 35 1.6 61 61 Calm 29.93 1014 10 16.0934 0 0
5:55 pm 17:55 Clear 44 6.9 37 2.6 74 74 Calm 29.94 1014 10 16.0934 0 0
6:15 pm 18:15 Clear 44 6.8 37 2.5 74 74 Calm 29.93 1013 10 16.0934 0 0
6:35 pm 18:35 Clear 43 6.1 37 2.9 80 80 Calm 29.94 1014 10 16.0934 0 0
6:55 pm 18:55 Clear 43 6 37 3 81 81 Calm 29.94 1014 10 16.0934 0 0
7:15 pm 19:15 Clear 44 6.6 35 1.6 71 71 Calm 29.94 1014 10 16.0934 0 0
7:35 pm 19:35 Clear 43 5.9 37 2.5 79 79 Calm 29.94 1014 10 16.0934 0 0
7:55 pm 19:55 Clear 42 5.8 37 2.6 80 80 Calm 29.92 1013 10 16.0934 0 0
8:15 pm 20:15 Clear 42 5.8 36 2.1 77 77 Calm 29.91 1013 10 16.0934 0 0
8:35 pm 20:35 Clear 41 5.2 37 2.8 85 85 Calm 29.91 1013 10 16.0934 0 0
8:55 pm 20:55 Clear 41 5 36 2.4 83 83 Calm 29.9 1013 10 16.0934 0 0
9:15 pm 21:15 Clear 41 5.1 37 2.5 83 83 Calm 29.9 1013 10 16.0934 0 0
9:35 pm 21:35 Partly Cloudy 42 5.4 37 3 85 85 Calm 29.89 1012 10 16.0934 0 0
9:55 pm 21:55 Partly Cloudy 42 5.7 35 1.4 74 74 NNE 3 6 29.88 1012 10 16.0934 0 0
10:15 pm 22:15 Partly Cloudy 42 5.5 35 1.8 77 77 Calm 29.87 1012 10 16.0934 0 0
10:35 pm 22:35 Cloudy 42 5.8 36 2.2 78 78 Calm 29.87 1011 10 16.0934 0 0
10:55 pm 22:55 Mostly Cloudy 42 5.4 37 2.6 82 82 Calm 29.86 1011 10 16.0934 0 0
11:15 pm 23:15 Cloudy 42 5.3 37 2.9 85 85 Calm 29.85 1011 10 16.0934 0 0
11:35 pm 23:35 Cloudy 43 6.1 35 1.4 72 72 Calm 29.84 1010 10 16.0934 0 0
11:55 pm 23:55 Cloudy with Light Rain 44 6.9 32 0.1 62 62 Calm 29.84 1010 10 16.0934 0 0

Powered by AerisWeather